Sioux Falls, SD

3:08 PM CST on December 06, 2016 (GMT -0600)
Foss

Weather History for KFSD - October, 2014

Change the Weather History Date:

Saturday, October 11, 2014

  Actual Average Record
Temperature  
Mean Temperature 44 °F 50 °F  
Max Temperature 60 °F 62 °F 90 °F (1910)
Min Temperature 27 °F 38 °F 20 °F (1987)
Degree Days  
Heating Degree Days 21 15  
Month to date heating degree days 170 145  
Since 1 July heating degree days 318 349  
Cooling Degree Days 0 0  
Month to date cooling degree days 0 0  
Year to date cooling degree days 610 685  
Moisture  
Dew Point 32 °F    
Average Humidity 66    
Maximum Humidity 92    
Minimum Humidity 40    
Precipitation  
Precipitation 0.00 in 0.08 in 1.25 in (1947)
Month to date precipitation 0.22 0.93  
Year to date precipitation 26.93 23.09  
Snow  
Snow 0.00 in 0.00 in 1.10 in (2009)
Month to date snowfall 0.0 0.2  
Since 1 July snowfall T 0.2  
Since 1 September snowfall 0.0 0.2  
Snow Depth 0.00 in    
Sea Level Pressure  
Sea Level Pressure 30.14 in    
Wind  
Wind Speed 10 mph (SSE)    
Max Wind Speed 20 mph    
Max Gust Speed 25 mph    
Visibility 10 miles    
Events      
T = Trace of Precipitation, MM = Missing Value Source: NWS Daily Summary

Daily Weather History Graph

Daily Weather History Graph

Search for Another Location

Airport or City:

Trip Planner

Search our weather history database for the weather conditions in past years. The results will help you decide how hot, cold, wet, or windy it might be!

Date:

Astronomy

Oct. 11, 2014 Rise Set
Actual Time 7:36 AM CDT 6:50 PM CDT
Civil Twilight 7:07 AM CDT 7:19 PM CDT
Nautical Twilight 6:34 AM CDT 7:52 PM CDT
Astronomical Twilight 6:01 AM CDT 8:25 PM CDT
Moon 9:13 PM CDT (10/11) 11:06 AM CDT (10/11)
Length of Visible Light 12h 11m
Length of Day
11h 14m
Waning Gibbous, 87% of the Moon is Illuminated
Oct 11
Waning Gibbous
Oct 15
Last Quarter
Oct 23
New
Oct 30
First Quarter
Nov 6
Full

Hourly Weather History & Observations

Time (CDT) Temp. Windchill Dew Point Humidity Pressure Visibility Wind Dir Wind Speed Gust Speed Precip Events Conditions
12:56 AM 33.1 °F - 30.0 °F 89% 30.25 in 10.0 mi Calm Calm - N/A   Clear
1:56 AM 32.0 °F - 28.0 °F 85% 30.25 in 10.0 mi Calm Calm - N/A   Clear
2:56 AM 30.0 °F 26.5 °F 27.0 °F 88% 30.24 in 10.0 mi NE 3.5 mph - N/A   Clear
3:56 AM 30.9 °F - 28.0 °F 89% 30.22 in 10.0 mi Calm Calm - N/A   Clear
4:56 AM 28.0 °F - 26.1 °F 92% 30.23 in 10.0 mi Calm Calm - N/A   Clear
5:56 AM 27.0 °F 23.0 °F 25.0 °F 92% 30.23 in 10.0 mi NE 3.5 mph - N/A   Partly Cloudy
6:56 AM 27.0 °F - 25.0 °F 92% 30.25 in 10.0 mi Calm Calm - N/A   Clear
7:56 AM 28.9 °F 25.2 °F 27.0 °F 92% 30.25 in 10.0 mi NE 3.5 mph - N/A   Partly Cloudy
8:56 AM 35.1 °F - 32.0 °F 89% 30.25 in 10.0 mi Calm Calm - N/A   Partly Cloudy
9:56 AM 46.0 °F 40.6 °F 36.0 °F 68% 30.24 in 10.0 mi South 11.5 mph - N/A   Clear
10:56 AM 51.1 °F - 37.0 °F 59% 30.22 in 10.0 mi SSE 11.5 mph - N/A   Clear
11:56 AM 55.0 °F - 35.1 °F 47% 30.20 in 10.0 mi South 17.3 mph 25.3 mph N/A   Clear
12:56 PM 55.9 °F - 35.1 °F 45% 30.17 in 10.0 mi South 13.8 mph 23.0 mph N/A   Partly Cloudy
1:56 PM 57.0 °F - 35.1 °F 44% 30.13 in 10.0 mi South 17.3 mph - N/A   Partly Cloudy
2:56 PM 59.0 °F - 37.0 °F 44% 30.10 in 10.0 mi South 16.1 mph - N/A   Clear
3:56 PM 60.1 °F - 37.9 °F 44% 30.06 in 10.0 mi South 18.4 mph - N/A   Clear
4:56 PM 59.0 °F - 36.0 °F 42% 30.04 in 10.0 mi South 15.0 mph - N/A   Clear
5:56 PM 57.9 °F - 36.0 °F 44% 30.02 in 10.0 mi South 16.1 mph - N/A   Partly Cloudy
6:56 PM 54.0 °F - 37.0 °F 53% 30.01 in 10.0 mi SSE 11.5 mph - N/A   Partly Cloudy
7:56 PM 53.1 °F - 36.0 °F 52% 30.00 in 10.0 mi SSE 11.5 mph - N/A   Clear
8:56 PM 51.1 °F - 35.1 °F 54% 29.99 in 10.0 mi South 15.0 mph 21.9 mph N/A   Clear
9:56 PM 50.0 °F - 34.0 °F 54% 29.96 in 10.0 mi South 13.8 mph - N/A   Clear
10:56 PM 48.9 °F - 34.0 °F 56% 29.95 in 10.0 mi South 15.0 mph - N/A   Clear
11:56 PM 48.0 °F - 33.1 °F 56% 29.91 in 10.0 mi South 12.7 mph - N/A   Clear